Strona główna
METAR-TAF:

METAR-TAF

Lotnisko :

Maringá, Parana, Brazylia

Szerokość geograficzna: 23-25S, Długość geograficzna: 051-57W, wysokość: 542 m

Aktualna obserwacja pogody

Raport powstał 1 godzina i 16 minut temu, godzina 21:00 UTC
Wiatr 6 kt od wschodnio-północny wschód
Temperatura 19°C
Wilgotność 88%
Ciśnienie 1019 hPa
Widzialność 10 km lub więcej
Brak chmur poniżej 1500 m i brak chmur cumulonimbus

METAR: SBMG 042100Z 06006KT CAVOK 19/17 Q1019

czas: 19:16 (22:16 UTC)


TAF: brakujący

Obserwacja i prognoza pogody dla ponad 4000 lotnisk (raport METAR i TAF).

Dostępne stacje oznaczono żółtymi i czerwonymi punktami na mapie.

Najedź kursorem aby zobaczyć nazwę stacji.

Kliknij aby zobaczyć obserwacje i prognozy pogody.

Aby zmienić mapę: kliknij na zielony przycisk z czarnym krzyżykiem, aby powiększyć; na zielony przycisk z myślnikiem, aby pomniejszyć; na zielone strzałki, aby przejść do map sąsiednich.


METAR-TAF: